This demonstration page uses our WeatherBlox Daily Observations layout. Learn more.

Left ArrowRight Arrow

39.95238, -75.16362

Hourly Observations for August 31, 2022

Temp ( °F °C ) Dew Point ( °F °C ) Humidity (%) Winds ( mph kmh ) Pressure ( in mb ) Visibility ( mi km ) Precip ( " mm )
12:54 am 00:54 Cloudy 76 24.4 72 22.2 88 88 W 7 11 29.80 1009 10 16 0.00 0.00
1:54 am 01:54 Mostly Cloudy 76 24.4 72 22.2 88 88 WNW 7 11 29.80 1009 10 16 0.00 0.00
2:54 am 02:54 Mostly Clear 75 23.9 71 21.7 88 88 W 8 13 29.80 1009 10 16 0.00 0.00
3:54 am 03:54 Mostly Clear 74 23.3 70 21.1 87 87 W 8 13 29.81 1010 10 16 0.00 0.00
4:54 am 04:54 Clear 74 23.3 69 20.6 85 85 W 8 13 29.81 1010 10 16 0.00 0.00
5:54 am 05:54 Mostly Clear 73 22.8 67 19.4 81 81 W 7 11 29.82 1010 10 16 0.00 0.00
6:54 am 06:54 Mostly Sunny 72 22.2 66 18.9 82 82 W 7 11 29.84 1010 10 16 0.00 0.00
7:54 am 07:54 Mostly Sunny 73 22.8 66 18.9 79 79 W 8 13 29.85 1011 10 16 0.00 0.00
8:54 am 08:54 Mostly Sunny 76 24.4 64 17.8 67 67 W 9 15 29.85 1011 10 16 0.00 0.00
9:54 am 09:54 Mostly Sunny 78 25.6 64 17.8 62 62 WNW 10 17 29.85 1011 10 16 0.00 0.00
10:54 am 10:54 Mostly Sunny 80 26.7 63 17.2 56 56 W 12 19 29.86 1011 10 16 0.00 0.00
11:54 am 11:54 Partly Cloudy 82 27.8 61 16.1 49 49 WNW 13 20 29.85 1011 10 16 0.00 0.00
12:54 pm 12:54 Partly Cloudy 83 28.3 60 15.6 46 46 NW 13 20 29.84 1010 10 16 0.00 0.00
1:54 pm 13:54 Mostly Cloudy 84 28.9 58 14.4 41 41 W 10 17 29.84 1010 10 16 0.00 0.00
2:54 pm 14:54 Partly Cloudy 84 28.9 56 13.3 38 38 NW 13 20 29.84 1011 10 16 0.00 0.00
3:54 pm 15:54 Partly Cloudy 86 30 55 12.8 35 35 W 17 28 29.84 1010 10 16 0.00 0.00
4:54 pm 16:54 Partly Cloudy 85 29.4 53 11.7 34 34 W 16 26 29.84 1010 10 16 0.00 0.00
5:54 pm 17:54 Partly Cloudy 85 29.4 53 11.7 34 34 W 16 26 29.84 1010 10 16 0.00 0.00
6:54 pm 18:54 Mostly Sunny 84 28.9 53 11.7 35 35 WNW 13 20 29.85 1011 10 16 0.00 0.00
7:54 pm 19:54 Mostly Clear 82 27.8 53 11.7 37 37 W 10 17 29.86 1011 10 16 0.00 0.00
8:54 pm 20:54 Mostly Clear 80 26.7 54 12.2 41 41 W 10 17 29.88 1012 10 16 0.00 0.00
9:54 pm 21:54 Clear 78 25.6 55 12.8 45 45 W 9 15 29.88 1012 10 16 0.00 0.00
10:54 pm 22:54 Clear 76 24.4 56 13.3 50 50 W 8 13 29.90 1012 10 16 0.00 0.00
11:54 pm 23:54 Clear 75 23.9 56 13.3 51 51 W 10 17 29.90 1013 10 16 0.00 0.00

Powered by AerisWeather